STARLINK-36841

Last updated on Fri Mar 27 2026 00:02:06 GMT+0000 (Coordinated Universal Time)

1 67960U 26037AE 26085.50002314 .00111344 00000+0 18817-2 0 9992 2 67960 43.0003 97.1746 0001187 268.7431 164.3895 15.50505968 5906
UTC large
Height (km)
Speed (km/s)
/
Latitude / Longitude
Inclination (degrees)
Orbital Period (minutes)
Azimuth
Elevation
Range (km)
Doppler Factor

Next 0 passes for location: London (51.5072 / 0.1276)

Sorry there are no passes over London.